FIN87D EFHK-LIRF

Flight info

Callsign FIN87D
Flight time N/A
Altitude 40000
Route VALOX Y117 ROSAX DCT ANFEV DCT PENOR DCT RASAN DCT ASTEL DCT BUDEX DCT BAXON/N0472F370 DCT UNUMU DCT ETPOK T369 RITEB
Aircraft A359/H-SDE2E3GHIJ3J4J5LM1ORWXY/LB1D1

Departure

Time 2026-02-20 07:48
Airport Helsinki Vantaa Airport (EFHK)

Arrival

Time N/A
Airport Rome–Fiumicino Leonardo da Vinci International Airport (LIRF)
Time Latitude Longitude Altitude Speed Heading
2026-02-20 06:58 60.31466 24.95606 173 ft 0 kts 137°
2026-02-20 07:01 60.31468 24.95604 173 ft 0 kts 137°
2026-02-20 07:30 60.31472 24.95595 173 ft 2 kts 137°
2026-02-20 07:30 60.31487 24.95568 173 ft 3 kts 137°
2026-02-20 07:30 60.31501 24.95541 173 ft 3 kts 137°
2026-02-20 07:31 60.31516 24.95518 173 ft 3 kts 170°
2026-02-20 07:31 60.31528 24.95521 173 ft 2 kts 226°
2026-02-20 07:31 60.31536 24.95538 173 ft 3 kts 227°
2026-02-20 07:31 60.31549 24.95568 173 ft 2 kts 227°
2026-02-20 07:32 60.31554 24.95577 173 ft 2 kts 227°
2026-02-20 07:34 60.31505 24.95472 173 ft 14 kts 230°
2026-02-20 07:34 60.31439 24.95325 173 ft 15 kts 227°
2026-02-20 07:35 60.31377 24.95159 173 ft 12 kts 263°
2026-02-20 07:35 60.31415 24.95037 173 ft 12 kts 313°
2026-02-20 07:35 60.31479 24.94990 174 ft 10 kts 14°
2026-02-20 07:35 60.31536 24.95090 176 ft 12 kts 46°
2026-02-20 07:36 60.31603 24.95231 176 ft 16 kts 48°
2026-02-20 07:36 60.31683 24.95413 177 ft 19 kts 48°
2026-02-20 07:36 60.31777 24.95625 176 ft 22 kts 48°
2026-02-20 07:36 60.31884 24.95857 175 ft 21 kts 48°
2026-02-20 07:37 60.31941 24.95957 177 ft 6 kts 16°
2026-02-20 07:37 60.31978 24.95932 178 ft 7 kts 324°
2026-02-20 07:37 60.32052 24.95803 180 ft 17 kts 319°
2026-02-20 07:37 60.32146 24.95626 179 ft 20 kts 316°
2026-02-20 07:38 60.32247 24.95432 181 ft 20 kts 316°
2026-02-20 07:38 60.32361 24.95262 183 ft 21 kts 336°
2026-02-20 07:38 60.32500 24.95166 196 ft 21 kts 343°
2026-02-20 07:38 60.32642 24.95074 199 ft 16 kts 343°
2026-02-20 07:39 60.32709 24.95049 202 ft 10 kts
2026-02-20 07:39 60.32757 24.95123 186 ft 7 kts 47°
2026-02-20 07:39 60.32783 24.95182 192 ft 2 kts 48°
2026-02-20 07:39 60.32802 24.95215 190 ft 4 kts 29°
2026-02-20 07:40 60.32834 24.95196 183 ft 7 kts 328°
2026-02-20 07:40 60.32870 24.95144 182 ft 3 kts 323°
2026-02-20 07:40 60.32880 24.95128 182 ft 0 kts 323°
2026-02-20 07:45 60.32880 24.95127 182 ft 0 kts 323°
2026-02-20 07:45 60.32901 24.95097 181 ft 8 kts 323°
2026-02-20 07:46 60.32962 24.95049 182 ft 11 kts 346°
2026-02-20 07:46 60.33042 24.95044 183 ft 13 kts
2026-02-20 07:46 60.33102 24.95002 187 ft 7 kts 302°
2026-02-20 07:46 60.33110 24.94902 196 ft 8 kts 276°
2026-02-20 07:47 60.33114 24.94784 188 ft 8 kts 271°
2026-02-20 07:47 60.33116 24.94676 190 ft 7 kts 271°
2026-02-20 07:47 60.33118 24.94528 195 ft 12 kts 271°
2026-02-20 07:47 60.33100 24.94370 210 ft 13 kts 239°
2026-02-20 07:48 60.33028 24.94200 205 ft 25 kts 227°
2026-02-20 07:48 60.32720 24.93523 203 ft 104 kts 227°
2026-02-20 07:48 60.32075 24.92125 230 ft 163 kts 228°
2026-02-20 07:48 60.31272 24.90499 1076 ft 155 kts 227°
2026-02-20 07:49 60.30639 24.88900 1993 ft 142 kts 251°
2026-02-20 07:49 60.30485 24.87010 2580 ft 134 kts 287°
2026-02-20 07:49 60.30767 24.85280 3246 ft 131 kts 292°
2026-02-20 07:49 60.30850 24.83386 3810 ft 142 kts 272°
2026-02-20 07:50 60.30727 24.81298 4264 ft 157 kts 269°
2026-02-20 07:50 60.30546 24.79045 4797 ft 168 kts 268°
2026-02-20 07:50 60.30289 24.76636 5311 ft 183 kts 263°
2026-02-20 07:50 60.29848 24.74129 5843 ft 199 kts 255°
2026-02-20 07:51 60.29240 24.71455 6228 ft 220 kts 252°
2026-02-20 07:51 60.28568 24.68522 6709 ft 238 kts 253°
2026-02-20 07:51 60.27884 24.65403 7248 ft 250 kts 255°
2026-02-20 07:51 60.27200 24.62088 7864 ft 261 kts 256°
2026-02-20 07:52 60.26510 24.58710 8602 ft 267 kts 256°
2026-02-20 07:52 60.25798 24.55231 9394 ft 271 kts 256°
2026-02-20 07:52 60.25029 24.51712 10165 ft 280 kts 251°
2026-02-20 07:52 60.23780 24.48542 10893 ft 302 kts 228°
2026-02-20 07:53 60.21863 24.46391 11316 ft 331 kts 207°
2026-02-20 07:53 60.19609 24.44831 11671 ft 352 kts 203°
2026-02-20 07:53 60.17237 24.43319 12175 ft 362 kts 202°
2026-02-20 07:53 60.14813 24.41753 12862 ft 368 kts 203°
2026-02-20 07:54 60.12368 24.40142 13577 ft 372 kts 203°
2026-02-20 07:54 60.09896 24.38493 14246 ft 376 kts 203°
2026-02-20 07:54 60.07399 24.36818 14853 ft 381 kts 203°
2026-02-20 07:54 60.05519 24.35549 15325 ft 384 kts 203°
2026-02-20 07:55 60.02967 24.33828 15954 ft 389 kts 203°
2026-02-20 07:55 60.00418 24.32109 16589 ft 393 kts 203°
2026-02-20 07:55 59.97817 24.30358 17207 ft 398 kts 202°
2026-02-20 07:55 59.95183 24.28586 17818 ft 401 kts 202°
2026-02-20 07:56 59.92513 24.26794 18429 ft 406 kts 202°
2026-02-20 07:56 59.89822 24.24989 18961 ft 410 kts 202°
2026-02-20 07:56 59.87106 24.23171 19530 ft 413 kts 202°
2026-02-20 07:56 59.84379 24.21348 20084 ft 416 kts 202°
2026-02-20 07:57 59.81617 24.19505 20659 ft 419 kts 203°
2026-02-20 07:57 59.79138 24.17854 21164 ft 422 kts 203°
2026-02-20 07:57 59.76343 24.15995 21728 ft 425 kts 203°
2026-02-20 07:57 59.73569 24.13933 22273 ft 425 kts 211°
2026-02-20 07:58 59.71007 24.11083 22818 ft 422 kts 218°
2026-02-20 07:58 59.68562 24.07850 23361 ft 423 kts 222°
2026-02-20 07:58 59.66165 24.04418 23820 ft 426 kts 224°
2026-02-20 07:58 59.63782 24.00912 24298 ft 429 kts 224°
2026-02-20 07:59 59.61383 23.97392 24839 ft 430 kts 224°
2026-02-20 07:59 59.58960 23.93880 25357 ft 432 kts 223°
2026-02-20 07:59 59.56525 23.90390 25888 ft 435 kts 223°
2026-02-20 07:59 59.54061 23.86901 26404 ft 437 kts 223°
2026-02-20 08:00 59.51629 23.83486 26943 ft 439 kts 223°
2026-02-20 08:00 59.49171 23.80021 27464 ft 440 kts 224°
2026-02-20 08:00 59.46866 23.76117 27984 ft 436 kts 231°
2026-02-20 08:00 59.44693 23.71944 28518 ft 437 kts 233°
2026-02-20 08:01 59.42564 23.67674 29055 ft 438 kts 233°
2026-02-20 08:01 59.40451 23.63345 29574 ft 440 kts 234°
2026-02-20 08:01 59.38334 23.58977 30086 ft 443 kts 234°
2026-02-20 08:01 59.36921 23.56062 30377 ft 445 kts 234°
2026-02-20 08:02 59.34779 23.51660 30772 ft 448 kts 233°
2026-02-20 08:02 59.32613 23.47233 31171 ft 451 kts 233°
2026-02-20 08:02 59.30432 23.42800 31558 ft 454 kts 232°
2026-02-20 08:02 59.28232 23.38343 31942 ft 457 kts 232°
2026-02-20 08:03 59.26017 23.33871 32309 ft 459 kts 231°
2026-02-20 08:03 59.23785 23.29377 32646 ft 462 kts 231°
2026-02-20 08:03 59.21535 23.24855 32964 ft 466 kts 231°
2026-02-20 08:03 59.19264 23.20297 33305 ft 469 kts 231°
2026-02-20 08:04 59.16983 23.15728 33630 ft 472 kts 230°
2026-02-20 08:04 59.14680 23.11125 33956 ft 475 kts 230°
2026-02-20 08:04 59.12370 23.06520 34221 ft 478 kts 230°
2026-02-20 08:04 59.10035 23.01871 34486 ft 480 kts 230°
2026-02-20 08:05 59.07692 22.97215 34794 ft 481 kts 230°
2026-02-20 08:05 59.05399 22.92669 35180 ft 480 kts 230°
2026-02-20 08:05 59.03319 22.88557 35532 ft 479 kts 230°
2026-02-20 08:05 59.00983 22.83949 35901 ft 477 kts 230°
2026-02-20 08:06 58.98686 22.79443 36397 ft 474 kts 231°
2026-02-20 08:06 58.96373 22.74908 36809 ft 472 kts 231°
2026-02-20 08:06 58.94066 22.70373 37126 ft 472 kts 230°
2026-02-20 08:06 58.91762 22.65850 37454 ft 472 kts 230°
2026-02-20 08:07 58.89459 22.61337 37794 ft 471 kts 230°
2026-02-20 08:07 58.87160 22.56845 38135 ft 470 kts 230°
2026-02-20 08:07 58.84857 22.52357 38466 ft 469 kts 230°
2026-02-20 08:07 58.82561 22.47893 38786 ft 468 kts 230°
2026-02-20 08:08 58.80262 22.43434 39029 ft 468 kts 230°
2026-02-20 08:08 58.77967 22.38991 39220 ft 468 kts 230°
2026-02-20 08:08 58.75674 22.34560 39433 ft 468 kts 230°